28-03-2023, 00:00:06,    161,    0.0,    2.9,   0.00,   0.00, 1019.6,   73.0, -999.0
28-03-2023, 00:00:16,    160,    0.0,    2.9,   0.00,   0.00, 1019.6,   72.7, -999.0
28-03-2023, 00:00:26,    160,    0.0,    2.8,   0.00,   0.00, 1019.6,   72.5, -999.0
28-03-2023, 00:00:36,    160,    0.0,    2.8,   0.00,   0.00, 1019.6,   72.5, -999.0
28-03-2023, 00:00:46,    160,    0.0,    2.8,   0.00,   0.00, 1019.6,   72.6, -999.0
28-03-2023, 00:00:56,    160,    0.0,    2.9,   0.00,   0.00, 1019.6,   72.8, -999.0
28-03-2023, 00:01:06,    160,    0.0,    2.8,   0.00,   0.00, 1019.6,   72.8, -999.0
28-03-2023, 00:01:16,    160,    0.0,    2.7,   0.00,   0.00, 1019.6,   72.9, -999.0
28-03-2023, 00:01:26,    160,    0.0,    2.8,   0.00,   0.00, 1019.6,   72.8, -999.0
28-03-2023, 00:01:36,    160,    0.0,    2.8,   0.00,   0.00, 1019.6,   72.9, -999.0
28-03-2023, 00:01:46,    160,    0.0,    2.8,   0.00,   0.00, 1019.6,   72.9, -999.0
28-03-2023, 00:01:56,    160,    0.0,    2.8,   0.00,   0.00, 1019.6,   72.9, -999.0
28-03-2023, 00:02:06,    145,    0.7,    2.8,   0.00,   0.00, 1019.7,   73.2, -999.0
28-03-2023, 00:02:16,    155,    1.1,    2.8,   0.00,   0.00, 1019.7,   73.2, -999.0
28-03-2023, 00:02:26,    159,    0.0,    2.8,   0.00,   0.00, 1019.6,   72.8, -999.0
28-03-2023, 00:02:36,    159,    0.6,    2.9,   0.00,   0.00, 1019.7,   73.1, -999.0
28-03-2023, 00:02:46,    158,    1.0,    2.9,   0.00,   0.00, 1019.7,   73.2, -999.0
28-03-2023, 00:02:56,    158,    0.3,    2.9,   0.00,   0.00, 1019.6,   73.0, -999.0
28-03-2023, 00:03:06,    158,    0.0,    2.8,   0.00,   0.00, 1019.6,   73.0, -999.0
28-03-2023, 00:03:15,    164,    0.0,    2.8,   0.00,   0.00, 1019.6,   73.0, -999.0
28-03-2023, 00:03:26,    190,    0.9,    2.9,   0.00,   0.00, 1019.7,   73.3, -999.0
28-03-2023, 00:03:36,    173,    1.0,    2.8,   0.00,   0.00, 1019.7,   73.3, -999.0
28-03-2023, 00:03:46,    172,    0.3,    2.9,   0.00,   0.00, 1019.6,   73.1, -999.0
28-03-2023, 00:03:55,    173,    0.0,    2.7,   0.00,   0.00, 1019.6,   72.9, -999.0
28-03-2023, 00:04:06,    173,    0.0,    2.8,   0.00,   0.00, 1019.6,   73.0, -999.0
28-03-2023, 00:04:16,    173,    0.0,    2.8,   0.00,   0.00, 1019.6,   73.0, -999.0
28-03-2023, 00:04:25,    173,    0.2,    2.8,   0.00,   0.00, 1019.7,   73.3, -999.0
28-03-2023, 00:04:35,    173,    0.1,    2.8,   0.00,   0.00, 1019.6,   73.0, -999.0
28-03-2023, 00:04:46,    172,    0.0,    2.7,   0.00,   0.00, 1019.6,   72.9, -999.0
28-03-2023, 00:04:56,    173,    0.0,    2.6,   0.00,   0.00, 1019.6,   72.8, -999.0
28-03-2023, 00:05:05,    172,    0.1,    2.8,   0.00,   0.00, 1019.7,   73.2, -999.0
28-03-2023, 00:05:15,    147,    0.4,    2.9,   0.00,   0.00, 1019.7,   73.5, -999.0
28-03-2023, 00:05:26,    146,    0.4,    2.9,   0.00,   0.00, 1019.7,   73.4, -999.0
28-03-2023, 00:05:35,    147,    0.1,    2.7,   0.00,   0.00, 1019.6,   73.0, -999.0
28-03-2023, 00:05:45,    159,    0.0,    2.7,   0.00,   0.00, 1019.6,   72.9, -999.0
28-03-2023, 00:05:56,    157,    0.0,    2.7,   0.00,   0.00, 1019.6,   73.1, -999.0
28-03-2023, 00:06:06,    157,    0.0,    2.7,   0.00,   0.00, 1019.6,   73.0, -999.0
28-03-2023, 00:06:15,    159,    0.0,    2.8,   0.00,   0.00, 1019.6,   73.3, -999.0
28-03-2023, 00:06:25,    157,    0.1,    2.9,   0.00,   0.00, 1019.6,   73.5, -999.0
28-03-2023, 00:06:35,    157,    0.0,    2.9,   0.00,   0.00, 1019.7,   73.4, -999.0
28-03-2023, 00:06:45,    209,    0.1,    2.9,   0.00,   0.00, 1019.7,   73.4, -999.0
28-03-2023, 00:06:55,    208,    0.0,    2.8,   0.00,   0.00, 1019.6,   73.1, -999.0
28-03-2023, 00:07:05,    208,    0.0,    2.8,   0.00,   0.00, 1019.6,   73.1, -999.0
28-03-2023, 00:07:16,    207,    0.0,    2.8,   0.00,   0.00, 1019.6,   73.0, -999.0
28-03-2023, 00:07:25,    176,    0.0,    2.9,   0.00,   0.00, 1019.6,   73.1, -999.0
28-03-2023, 00:07:35,    176,    0.0,    2.9,   0.00,   0.00, 1019.5,   73.1, -999.0
28-03-2023, 00:07:45,    176,    0.0,    2.9,   0.00,   0.00, 1019.6,   73.1, -999.0
28-03-2023, 00:07:55,    176,    0.0,    2.9,   0.00,   0.00, 1019.6,   73.0, -999.0
28-03-2023, 00:08:05,    177,    0.0,    2.9,   0.00,   0.00, 1019.6,   73.0, -999.0
28-03-2023, 00:08:15,    177,    0.0,    2.8,   0.00,   0.00, 1019.6,   73.0, -999.0
28-03-2023, 00:08:25,    176,    0.0,    2.9,   0.00,   0.00, 1019.6,   73.0, -999.0
28-03-2023, 00:08:37,    176,    0.1,    2.9,   0.00,   0.00, 1019.6,   73.1, -999.0
28-03-2023, 00:08:45,    155,    0.1,    2.9,   0.00,   0.00, 1019.7,   73.1, -999.0
28-03-2023, 00:08:55,    137,    0.5,    2.9,   0.00,   0.00, 1019.7,   72.9, -999.0
28-03-2023, 00:09:05,    176,    0.5,    2.9,   0.00,   0.00, 1019.7,   73.1, -999.0
28-03-2023, 00:09:15,    147,    0.3,    2.9,   0.00,   0.00, 1019.7,   73.0, -999.0
28-03-2023, 00:09:25,    149,    0.1,    3.0,   0.00,   0.00, 1019.7,   72.9, -999.0
28-03-2023, 00:09:35,    149,    0.0,    2.9,   0.00,   0.00, 1019.6,   72.6, -999.0
28-03-2023, 00:09:45,    149,    0.0,    2.7,   0.00,   0.00, 1019.6,   72.6, -999.0
28-03-2023, 00:09:55,    147,    0.2,    3.0,   0.00,   0.00, 1019.7,   72.9, -999.0
28-03-2023, 00:10:05,    110,    0.6,    3.0,   0.00,   0.00, 1019.7,   73.3, -999.0
28-03-2023, 00:10:15,    113,    0.0,    2.9,   0.00,   0.00, 1019.6,   72.9, -999.0
28-03-2023, 00:10:25,    137,    0.0,    2.8,   0.00,   0.00, 1019.6,   72.6, -999.0
28-03-2023, 00:10:35,    142,    0.1,    2.9,   0.00,   0.00, 1019.6,   72.7, -999.0
28-03-2023, 00:10:45,    140,    0.1,    2.9,   0.00,   0.00, 1019.6,   72.8, -999.0
28-03-2023, 00:10:55,    159,    1.3,    2.9,   0.00,   0.00, 1019.7,   73.0, -999.0
28-03-2023, 00:11:05,    160,    0.4,    2.9,   0.00,   0.00, 1019.7,   72.9, -999.0
28-03-2023, 00:11:15,    160,    0.0,    2.8,   0.00,   0.00, 1019.6,   72.5, -999.0
28-03-2023, 00:11:25,    160,    0.0,    2.8,   0.00,   0.00, 1019.6,   72.6, -999.0
28-03-2023, 00:11:35,    160,    0.0,    2.8,   0.00,   0.00, 1019.6,   72.6, -999.0
28-03-2023, 00:11:45,    165,    0.0,    2.7,   0.00,   0.00, 1019.6,   72.7, -999.0
28-03-2023, 00:11:55,    165,    0.0,    2.8,   0.00,   0.00, 1019.5,   72.6, -999.0
28-03-2023, 00:12:05,    165,    0.1,    2.7,   0.00,   0.00, 1019.6,   72.8, -999.0
28-03-2023, 00:12:15,    165,    0.0,    3.0,   0.00,   0.00, 1019.6,   72.7, -999.0
28-03-2023, 00:12:25,    165,    0.0,    2.9,   0.00,   0.00, 1019.5,   72.6, -999.0
28-03-2023, 00:12:35,    161,    0.0,    2.8,   0.00,   0.00, 1019.6,   72.6, -999.0
28-03-2023, 00:12:45,    161,    0.0,    2.7,   0.00,   0.00, 1019.5,   72.7, -999.0
28-03-2023, 00:12:55,    133,    0.8,    2.8,   0.00,   0.00, 1019.6,   73.1, -999.0
28-03-2023, 00:13:05,    155,    1.8,    2.8,   0.00,   0.00, 1019.6,   73.1, -999.0
28-03-2023, 00:13:15,    162,    2.8,    2.8,   0.00,   0.00, 1019.6,   73.1, -999.0
28-03-2023, 00:13:25,    165,    2.0,    2.8,   0.00,   0.00, 1019.6,   72.9, -999.0
28-03-2023, 00:13:34,    174,    0.6,    2.7,   0.00,   0.00, 1019.6,   72.8, -999.0
28-03-2023, 00:13:45,    173,    0.0,    2.7,   0.00,   0.00, 1019.5,   72.6, -999.0
28-03-2023, 00:13:55,    172,    0.4,    2.7,   0.00,   0.00, 1019.6,   73.1, -999.0
28-03-2023, 00:14:05,    172,    0.0,    2.7,   0.00,   0.00, 1019.5,   72.8, -999.0
28-03-2023, 00:14:14,    172,    0.0,    2.7,   0.00,   0.00, 1019.5,   73.0, -999.0
28-03-2023, 00:14:25,    172,    0.0,    2.7,   0.00,   0.00, 1019.5,   72.9, -999.0
28-03-2023, 00:14:35,    173,    0.0,    2.7,   0.00,   0.00, 1019.4,   73.0, -999.0
28-03-2023, 00:14:44,    172,    0.0,    2.7,   0.00,   0.00, 1019.5,   73.0, -999.0
28-03-2023, 00:14:54,    172,    0.0,    2.7,   0.00,   0.00, 1019.5,   73.1, -999.0
28-03-2023, 00:15:05,    172,    0.0,    2.6,   0.00,   0.00, 1019.5,   73.1, -999.0
28-03-2023, 00:15:14,    173,    0.0,    2.7,   0.00,   0.00, 1019.5,   73.2, -999.0
28-03-2023, 00:15:24,    173,    0.0,    2.7,   0.00,   0.00, 1019.5,   73.1, -999.0
28-03-2023, 00:15:35,    172,    0.0,    2.7,   0.00,   0.00, 1019.5,   73.1, -999.0
28-03-2023, 00:15:45,    172,    0.0,    2.7,   0.00,   0.00, 1019.5,   73.0, -999.0
28-03-2023, 00:15:54,    172,    0.0,    2.8,   0.00,   0.00, 1019.5,   73.1, -999.0
28-03-2023, 00:16:04,    172,    0.0,    2.7,   0.00,   0.00, 1019.5,   73.1, -999.0
28-03-2023, 00:16:15,    153,    2.1,    2.7,   0.00,   0.00, 1019.6,   73.3, -999.0
28-03-2023, 00:16:24,    152,    1.0,    2.7,   0.00,   0.00, 1019.6,   73.0, -999.0
28-03-2023, 00:16:34,    149,    0.8,    2.8,   0.00,   0.00, 1019.6,   73.0, -999.0
28-03-2023, 00:16:44,    149,    0.0,    2.7,   0.00,   0.00, 1019.5,   72.9, -999.0
28-03-2023, 00:16:54,    159,    0.3,    2.7,   0.00,   0.00, 1019.5,   73.0, -999.0
28-03-2023, 00:17:04,    141,    1.6,    2.7,   0.00,   0.00, 1019.6,   73.3, -999.0
28-03-2023, 00:17:14,    137,    0.7,    2.7,   0.00,   0.00, 1019.6,   73.2, -999.0
28-03-2023, 00:17:24,    177,    0.1,    2.8,   0.00,   0.00, 1019.5,   73.0, -999.0
28-03-2023, 00:17:34,    164,    0.5,    2.7,   0.00,   0.00, 1019.6,   73.2, -999.0
28-03-2023, 00:17:44,    164,    0.0,    2.7,   0.00,   0.00, 1019.5,   73.0, -999.0
28-03-2023, 00:17:54,    164,    0.2,    2.7,   0.00,   0.00, 1019.5,   73.2, -999.0
28-03-2023, 00:18:04,    169,    0.0,    2.7,   0.00,   0.00, 1019.5,   73.1, -999.0
28-03-2023, 00:18:14,    169,    0.0,    2.6,   0.00,   0.00, 1019.5,   72.9, -999.0
28-03-2023, 00:18:24,    169,    0.0,    2.6,   0.00,   0.00, 1019.5,   72.9, -999.0
28-03-2023, 00:18:34,    159,    0.5,    2.7,   0.00,   0.00, 1019.6,   73.3, -999.0
28-03-2023, 00:18:44,    157,    0.2,    2.7,   0.00,   0.00, 1019.5,   73.2, -999.0
28-03-2023, 00:18:54,    167,    0.2,    2.7,   0.00,   0.00, 1019.5,   73.2, -999.0
28-03-2023, 00:19:04,    173,    0.7,    2.7,   0.00,   0.00, 1019.5,   73.4, -999.0
28-03-2023, 00:19:14,    149,    0.8,    2.7,   0.00,   0.00, 1019.6,   73.4, -999.0
28-03-2023, 00:19:24,    145,    1.0,    2.8,   0.00,   0.00, 1019.6,   73.4, -999.0
28-03-2023, 00:19:34,    146,    0.3,    2.7,   0.00,   0.00, 1019.5,   73.3, -999.0
28-03-2023, 00:19:44,    145,    0.0,    2.7,   0.00,   0.00, 1019.5,   73.2, -999.0
28-03-2023, 00:19:54,    145,    0.0,    2.6,   0.00,   0.00, 1019.5,   73.2, -999.0
28-03-2023, 00:20:04,    145,    0.0,    2.7,   0.00,   0.00, 1019.4,   73.0, -999.0
28-03-2023, 00:20:14,    171,    0.0,    2.7,   0.00,   0.00, 1019.4,   73.1, -999.0
28-03-2023, 00:20:24,    170,    0.0,    2.6,   0.00,   0.00, 1019.5,   73.1, -999.0
28-03-2023, 00:20:34,    172,    0.0,    2.7,   0.00,   0.00, 1019.5,   73.2, -999.0
28-03-2023, 00:20:44,    158,    0.4,    2.7,   0.00,   0.00, 1019.5,   73.3, -999.0
28-03-2023, 00:20:54,    157,    0.2,    2.7,   0.00,   0.00, 1019.5,   73.1, -999.0
28-03-2023, 00:21:04,    157,    0.4,    2.6,   0.00,   0.00, 1019.5,   73.0, -999.0
28-03-2023, 00:21:14,    157,    0.0,    2.4,   0.00,   0.00, 1019.5,   72.8, -999.0
28-03-2023, 00:21:24,    181,    0.4,    2.6,   0.00,   0.00, 1019.5,   73.2, -999.0
28-03-2023, 00:21:34,    181,    0.0,    2.6,   0.00,   0.00, 1019.5,   73.2, -999.0
28-03-2023, 00:21:44,    155,    0.5,    2.7,   0.00,   0.00, 1019.6,   73.5, -999.0
28-03-2023, 00:21:54,    138,    1.5,    2.7,   0.00,   0.00, 1019.5,   73.5, -999.0
28-03-2023, 00:22:04,    143,    0.4,    2.6,   0.00,   0.00, 1019.5,   73.4, -999.0
28-03-2023, 00:22:14,    156,    0.4,    2.6,   0.00,   0.00, 1019.5,   73.4, -999.0
28-03-2023, 00:22:24,    155,    0.0,    2.6,   0.00,   0.00, 1019.5,   73.3, -999.0
28-03-2023, 00:22:34,    155,    0.0,    2.4,   0.00,   0.00, 1019.4,   73.2, -999.0
28-03-2023, 00:22:44,    155,    0.0,    2.7,   0.00,   0.00, 1019.4,   73.1, -999.0
28-03-2023, 00:22:54,    155,    0.0,    2.7,   0.00,   0.00, 1019.4,   73.2, -999.0
28-03-2023, 00:23:04,    155,    0.2,    2.7,   0.00,   0.00, 1019.5,   73.4, -999.0
28-03-2023, 00:23:14,    142,    0.8,    2.7,   0.00,   0.00, 1019.5,   73.5, -999.0
28-03-2023, 00:23:24,    141,    0.0,    2.6,   0.00,   0.00, 1019.4,   73.0, -999.0
28-03-2023, 00:23:34,    144,    0.1,    2.6,   0.00,   0.00, 1019.5,   73.1, -999.0
28-03-2023, 00:23:44,    161,    0.7,    2.6,   0.00,   0.00, 1019.5,   73.4, -999.0
28-03-2023, 00:23:54,    161,    0.1,    2.7,   0.00,   0.00, 1019.5,   73.2, -999.0
28-03-2023, 00:24:04,    160,    0.1,    2.7,   0.00,   0.00, 1019.5,   73.2, -999.0
28-03-2023, 00:24:14,    159,    0.0,    2.6,   0.00,   0.00, 1019.4,   73.1, -999.0
28-03-2023, 00:24:23,    157,    0.7,    2.6,   0.00,   0.00, 1019.5,   73.5, -999.0
28-03-2023, 00:24:34,    157,    0.5,    2.7,   0.00,   0.00, 1019.5,   73.4, -999.0
28-03-2023, 00:24:44,    157,    0.0,    2.6,   0.00,   0.00, 1019.4,   73.1, -999.0
28-03-2023, 00:24:54,    157,    0.0,    2.6,   0.00,   0.00, 1019.4,   73.0, -999.0
28-03-2023, 00:25:03,    157,    0.0,    2.7,   0.00,   0.00, 1019.4,   73.3, -999.0
28-03-2023, 00:25:14,    157,    0.0,    2.6,   0.00,   0.00, 1019.4,   73.3, -999.0
28-03-2023, 00:25:24,    157,    0.0,    2.7,   0.00,   0.00, 1019.4,   73.4, -999.0
28-03-2023, 00:25:33,    157,    0.0,    2.7,   0.00,   0.00, 1019.4,   73.3, -999.0
28-03-2023, 00:25:43,    157,    0.0,    2.7,   0.00,   0.00, 1019.4,   73.3, -999.0
28-03-2023, 00:25:54,    158,    0.0,    2.5,   0.00,   0.00, 1019.4,   73.1, -999.0
28-03-2023, 00:26:03,    163,    0.4,    2.7,   0.00,   0.00, 1019.5,   73.0, -999.0
28-03-2023, 00:26:13,    155,    1.7,    2.6,   0.00,   0.00, 1019.5,   73.0, -999.0
28-03-2023, 00:26:23,    162,    1.1,    2.6,   0.00,   0.00, 1019.5,   73.0, -999.0
28-03-2023, 00:26:34,    158,    0.1,    2.6,   0.00,   0.00, 1019.5,   72.8, -999.0
28-03-2023, 00:26:43,    158,    0.0,    2.5,   0.00,   0.00, 1019.4,   72.7, -999.0
28-03-2023, 00:26:55,    129,    0.4,    2.5,   0.00,   0.00, 1019.5,   73.0, -999.0
28-03-2023, 00:27:03,    168,    0.7,    2.7,   0.00,   0.00, 1019.5,   73.3, -999.0
28-03-2023, 00:27:13,    143,    1.2,    2.7,   0.00,   0.00, 1019.5,   73.3, -999.0
28-03-2023, 00:27:23,    143,    1.1,    2.6,   0.00,   0.00, 1019.5,   73.3, -999.0
28-03-2023, 00:27:33,    147,    0.6,    2.7,   0.00,   0.00, 1019.5,   73.1, -999.0
28-03-2023, 00:27:43,    161,    0.8,    2.6,   0.00,   0.00, 1019.5,   73.2, -999.0
28-03-2023, 00:27:53,    162,    0.3,    2.6,   0.00,   0.00, 1019.5,   73.2, -999.0
28-03-2023, 00:28:03,    156,    0.4,    2.6,   0.00,   0.00, 1019.5,   73.2, -999.0
28-03-2023, 00:28:13,    155,    1.9,    2.6,   0.00,   0.00, 1019.5,   73.3, -999.0
28-03-2023, 00:28:23,    167,    0.3,    2.7,   0.00,   0.00, 1019.4,   73.0, -999.0
28-03-2023, 00:28:33,    166,    0.1,    2.6,   0.00,   0.00, 1019.4,   72.8, -999.0
28-03-2023, 00:28:43,    166,    0.0,    2.6,   0.00,   0.00, 1019.4,   72.9, -999.0
28-03-2023, 00:28:53,    165,    0.0,    2.6,   0.00,   0.00, 1019.4,   72.8, -999.0
28-03-2023, 00:29:03,    167,    0.0,    2.6,   0.00,   0.00, 1019.4,   73.1, -999.0
28-03-2023, 00:29:13,    171,    0.0,    2.5,   0.00,   0.00, 1019.4,   73.2, -999.0
28-03-2023, 00:29:23,    167,    0.0,    2.6,   0.00,   0.00, 1019.4,   73.4, -999.0
28-03-2023, 00:29:33,    167,    0.0,    2.5,   0.00,   0.00, 1019.4,   73.2, -999.0
28-03-2023, 00:29:43,    167,    0.0,    2.6,   0.00,   0.00, 1019.4,   73.1, -999.0
28-03-2023, 00:29:53,    166,    0.0,    2.6,   0.00,   0.00, 1019.4,   73.2, -999.0
28-03-2023, 00:30:03,    167,    0.0,    2.5,   0.00,   0.00, 1019.4,   73.2, -999.0
28-03-2023, 00:30:13,    167,    0.0,    2.6,   0.00,   0.00, 1019.4,   73.1, -999.0
28-03-2023, 00:30:23,    167,    0.0,    2.7,   0.00,   0.00, 1019.4,   73.3, -999.0
28-03-2023, 00:30:33,    167,    0.0,    2.7,   0.00,   0.00, 1019.4,   73.2, -999.0
28-03-2023, 00:30:43,    167,    0.3,    2.7,   0.00,   0.00, 1019.4,   73.5, -999.0
28-03-2023, 00:30:53,    168,    0.8,    2.7,   0.00,   0.00, 1019.4,   73.3, -999.0
28-03-2023, 00:31:03,    141,    1.2,    2.6,   0.00,   0.00, 1019.4,   73.1, -999.0
28-03-2023, 00:31:13,    179,    1.1,    2.7,   0.00,   0.00, 1019.4,   73.1, -999.0
28-03-2023, 00:31:23,    178,    0.5,    2.7,   0.00,   0.00, 1019.5,   73.0, -999.0
28-03-2023, 00:31:33,    177,    0.0,    2.6,   0.00,   0.00, 1019.3,   72.8, -999.0
28-03-2023, 00:31:43,    179,    0.1,    2.6,   0.00,   0.00, 1019.4,   73.0, -999.0
28-03-2023, 00:31:53,    179,    0.0,    2.6,   0.00,   0.00, 1019.3,   72.9, -999.0
28-03-2023, 00:32:03,    150,    0.3,    2.7,   0.00,   0.00, 1019.4,   73.2, -999.0
28-03-2023, 00:32:13,    152,    1.6,    2.8,   0.00,   0.00, 1019.5,   73.3, -999.0
28-03-2023, 00:32:23,    142,    1.4,    2.8,   0.00,   0.00, 1019.4,   73.0, -999.0
28-03-2023, 00:32:33,    163,    1.5,    2.6,   0.00,   0.00, 1019.4,   73.0, -999.0
28-03-2023, 00:32:43,    146,    0.9,    2.6,   0.00,   0.00, 1019.4,   72.8, -999.0
28-03-2023, 00:32:53,    160,    0.9,    2.7,   0.00,   0.00, 1019.4,   72.7, -999.0
28-03-2023, 00:33:03,    142,    1.3,    2.7,   0.00,   0.00, 1019.4,   72.6, -999.0
28-03-2023, 00:33:13,    161,    0.3,    2.6,   0.00,   0.00, 1019.4,   72.5, -999.0
28-03-2023, 00:33:23,    161,    0.0,    2.5,   0.00,   0.00, 1019.3,   72.4, -999.0
28-03-2023, 00:33:33,    161,    0.0,    2.6,   0.00,   0.00, 1019.3,   72.5, -999.0
28-03-2023, 00:33:43,    161,    0.0,    2.6,   0.00,   0.00, 1019.3,   72.5, -999.0
28-03-2023, 00:33:53,    161,    0.0,    2.6,   0.00,   0.00, 1019.2,   72.6, -999.0
28-03-2023, 00:34:02,    161,    0.0,    2.6,   0.00,   0.00, 1019.3,   72.6, -999.0
28-03-2023, 00:34:13,    161,    0.0,    2.5,   0.00,   0.00, 1019.3,   72.7, -999.0
28-03-2023, 00:34:23,    160,    0.0,    2.7,   0.00,   0.00, 1019.3,   73.0, -999.0
28-03-2023, 00:34:33,    155,    0.7,    2.6,   0.00,   0.00, 1019.3,   73.0, -999.0
28-03-2023, 00:34:42,    156,    0.8,    2.7,   0.00,   0.00, 1019.4,   72.8, -999.0
28-03-2023, 00:34:53,    156,    0.0,    2.6,   0.00,   0.00, 1019.3,   72.4, -999.0
28-03-2023, 00:35:03,    183,    0.5,    2.6,   0.00,   0.00, 1019.4,   72.4, -999.0
28-03-2023, 00:35:12,    183,    0.0,    2.5,   0.00,   0.00, 1019.2,   72.2, -999.0
28-03-2023, 00:35:22,    183,    0.0,    2.6,   0.00,   0.00, 1019.2,   72.3, -999.0
28-03-2023, 00:35:33,    182,    0.1,    2.6,   0.00,   0.00, 1019.3,   72.6, -999.0
28-03-2023, 00:35:43,    186,    0.9,    2.7,   0.00,   0.00, 1019.4,   72.9, -999.0
28-03-2023, 00:35:52,    184,    0.3,    2.7,   0.00,   0.00, 1019.3,   72.7, -999.0
28-03-2023, 00:36:03,    174,    0.2,    2.7,   0.00,   0.00, 1019.3,   72.6, -999.0
28-03-2023, 00:36:13,    173,    0.5,    2.7,   0.00,   0.00, 1019.4,   72.7, -999.0
28-03-2023, 00:36:22,    173,    0.0,    2.7,   0.00,   0.00, 1019.3,   72.4, -999.0
28-03-2023, 00:36:32,    173,    0.0,    2.6,   0.00,   0.00, 1019.3,   72.2, -999.0
28-03-2023, 00:36:43,    171,    0.0,    2.7,   0.00,   0.00, 1019.3,   72.4, -999.0
28-03-2023, 00:36:52,    157,    1.7,    2.7,   0.00,   0.00, 1019.4,   72.6, -999.0
28-03-2023, 00:37:02,    166,    1.0,    2.7,   0.00,   0.00, 1019.4,   72.4, -999.0
28-03-2023, 00:37:12,    165,    0.0,    2.7,   0.00,   0.00, 1019.3,   71.9, -999.0
28-03-2023, 00:37:23,    164,    0.3,    2.6,   0.00,   0.00, 1019.3,   72.1, -999.0
28-03-2023, 00:37:32,    163,    0.3,    2.6,   0.00,   0.00, 1019.3,   72.1, -999.0
28-03-2023, 00:37:42,    163,    0.0,    2.7,   0.00,   0.00, 1019.3,   71.9, -999.0
28-03-2023, 00:37:52,    145,    0.0,    2.6,   0.00,   0.00, 1019.2,   72.1, -999.0
28-03-2023, 00:38:02,    134,    0.4,    2.7,   0.00,   0.00, 1019.3,   72.4, -999.0
28-03-2023, 00:38:12,    126,    0.7,    2.7,   0.00,   0.00, 1019.3,   72.5, -999.0
28-03-2023, 00:38:22,    126,    0.1,    2.7,   0.00,   0.00, 1019.2,   72.2, -999.0
28-03-2023, 00:38:32,    161,    0.2,    2.8,   0.00,   0.00, 1019.3,   72.3, -999.0
28-03-2023, 00:38:42,    158,    0.3,    2.8,   0.00,   0.00, 1019.3,   72.3, -999.0
28-03-2023, 00:38:52,    154,    1.1,    2.8,   0.00,   0.00, 1019.4,   72.2, -999.0
28-03-2023, 00:39:02,    155,    0.3,    2.8,   0.00,   0.00, 1019.3,   72.1, -999.0
28-03-2023, 00:39:12,    194,    0.9,    2.6,   0.00,   0.00, 1019.3,   72.1, -999.0
28-03-2023, 00:39:22,    104,    1.4,    2.6,   0.00,   0.00, 1019.3,   71.8, -999.0
28-03-2023, 00:39:32,    122,    0.0,    2.7,   0.00,   0.00, 1019.2,   71.4, -999.0
28-03-2023, 00:39:42,    163,    0.0,    2.7,   0.00,   0.00, 1019.2,   71.7, -999.0
28-03-2023, 00:39:52,    181,    1.3,    2.7,   0.00,   0.00, 1019.3,   71.8, -999.0
28-03-2023, 00:40:02,    181,    0.1,    2.6,   0.00,   0.00, 1019.3,   71.6, -999.0
28-03-2023, 00:40:12,    180,    0.0,    2.6,   0.00,   0.00, 1019.2,   71.6, -999.0
28-03-2023, 00:40:22,    181,    0.0,    2.6,   0.00,   0.00, 1019.2,   71.8, -999.0
28-03-2023, 00:40:32,    180,    0.0,    2.7,   0.00,   0.00, 1019.2,   71.9, -999.0
28-03-2023, 00:40:42,    174,    0.1,    2.6,   0.00,   0.00, 1019.2,   72.0, -999.0
28-03-2023, 00:40:52,    131,    1.7,    2.7,   0.00,   0.00, 1019.3,   72.1, -999.0
28-03-2023, 00:41:02,    178,    1.2,    2.8,   0.00,   0.00, 1019.3,   71.9, -999.0
28-03-2023, 00:41:12,    178,    0.0,    2.7,   0.00,   0.00, 1019.2,   71.4, -999.0
28-03-2023, 00:41:22,    178,    0.0,    2.6,   0.00,   0.00, 1019.2,   71.4, -999.0
28-03-2023, 00:41:32,    177,    0.0,    2.6,   0.00,   0.00, 1019.2,   71.3, -999.0
28-03-2023, 00:41:42,    177,    0.0,    2.6,   0.00,   0.00, 1019.2,   71.4, -999.0
28-03-2023, 00:41:52,    177,    0.0,    2.6,   0.00,   0.00, 1019.2,   71.4, -999.0
28-03-2023, 00:42:02,    176,    0.0,    2.6,   0.00,   0.00, 1019.2,   71.5, -999.0
28-03-2023, 00:42:12,    176,    0.0,    2.7,   0.00,   0.00, 1019.2,   71.5, -999.0
28-03-2023, 00:42:22,    176,    0.0,    2.8,   0.00,   0.00, 1019.2,   71.6, -999.0
28-03-2023, 00:42:32,    176,    0.0,    2.8,   0.00,   0.00, 1019.2,   71.6, -999.0
28-03-2023, 00:42:42,    177,    0.0,    2.8,   0.00,   0.00, 1019.2,   71.5, -999.0
28-03-2023, 00:42:52,    163,    1.1,    2.7,   0.00,   0.00, 1019.3,   71.8, -999.0
28-03-2023, 00:43:02,    161,    2.5,    2.9,   0.00,   0.00, 1019.3,   71.4, -999.0
28-03-2023, 00:43:12,    169,    1.2,    2.7,   0.00,   0.00, 1019.3,   71.0, -999.0
28-03-2023, 00:43:22,    171,    0.7,    2.7,   0.00,   0.00, 1019.2,   71.0, -999.0
28-03-2023, 00:43:32,    171,    0.0,    2.6,   0.00,   0.00, 1019.2,   70.7, -999.0
28-03-2023, 00:43:41,    170,    0.0,    2.5,   0.00,   0.00, 1019.2,   70.9, -999.0
28-03-2023, 00:43:52,    142,    0.7,    2.7,   0.00,   0.00, 1019.2,   71.4, -999.0
28-03-2023, 00:44:02,    151,    0.3,    2.7,   0.00,   0.00, 1019.3,   71.4, -999.0
28-03-2023, 00:44:12,    150,    0.0,    2.7,   0.00,   0.00, 1019.2,   71.2, -999.0
28-03-2023, 00:44:21,    150,    0.0,    2.7,   0.00,   0.00, 1019.2,   71.2, -999.0
28-03-2023, 00:44:32,    150,    0.1,    2.8,   0.00,   0.00, 1019.2,   71.3, -999.0
28-03-2023, 00:44:42,    152,    0.0,    2.7,   0.00,   0.00, 1019.1,   71.2, -999.0
28-03-2023, 00:44:51,    152,    0.0,    2.7,   0.00,   0.00, 1019.2,   71.2, -999.0
28-03-2023, 00:45:02,    148,    0.4,    2.8,   0.00,   0.00, 1019.2,   71.5, -999.0
28-03-2023, 00:45:12,    117,    0.5,    2.8,   0.00,   0.00, 1019.2,   71.4, -999.0
28-03-2023, 00:45:22,    117,    0.3,    2.9,   0.00,   0.00, 1019.2,   71.4, -999.0
28-03-2023, 00:45:31,    119,    0.0,    2.7,   0.00,   0.00, 1019.2,   71.1, -999.0
28-03-2023, 00:45:42,    133,    0.0,    2.8,   0.00,   0.00, 1019.2,   71.0, -999.0
28-03-2023, 00:45:52,    134,    0.0,    2.8,   0.00,   0.00, 1019.2,   70.9, -999.0
28-03-2023, 00:46:01,    137,    0.9,    2.9,   0.00,   0.00, 1019.3,   71.1, -999.0
28-03-2023, 00:46:11,    137,    0.6,    2.8,   0.00,   0.00, 1019.2,   70.9, -999.0
28-03-2023, 00:46:22,    158,    1.1,    2.8,   0.00,   0.00, 1019.2,   70.9, -999.0
28-03-2023, 00:46:31,    157,    0.2,    2.7,   0.00,   0.00, 1019.1,   70.6, -999.0
28-03-2023, 00:46:41,    137,    1.5,    2.8,   0.00,   0.00, 1019.2,   70.9, -999.0
28-03-2023, 00:46:51,    153,    1.8,    2.7,   0.00,   0.00, 1019.2,   70.7, -999.0